Location: Recife
(8.0585°S, 34.8848°W)
Time: 10:17:26
(UTC-03:00)

Injun/Solrad 3 - Pass Details

Date: 19 April 2026
Orbit: 868 x 988 km, 66.8° (Epoch: 12 May)

Event Time Altitude Azimuth Distance (km) Brightness Sun altitude
Rises 18:05:28 0° 181° (S) 3,461 10.8 -13.0°
Reaches altitude 10° 18:08:20 10° 169° (S) 2,516 10.0 -13.7°
Maximum altitude 18:13:11 28° 112° (ESE) 1,590 8.6 -14.9°
Enters shadow 18:16:14 18° 68° (ENE) 2,010 9.2 -15.6°
